CZ-6A DEB

Satellite information

Favourite Embed

Satellite Type and Status

DEBRISIN ORBIT

Key statistics

Satellite CZ-6A DEB at a glance.

Uptime

970

Days in orbit

Revolutions

≈ 14.4

Per day

Orbit

SSO

Sun Synchronous Orbit

Inclination

98.7

Latest

Satellite identification and parameters

Extended collection of information and parameters for CZ-6A DEB.

Object identification

Identified? True

Debris? True

Object name: CZ-6A DEB

International designator: 2022-151CT

Object number (NORAD): 54348

Object ID (CCSDS): 54348

Country: PEOPLES REPUBLIC OF CHINA (PRC)

Current information (Y/N): Y

RCS size: SMALL

Orbital parameters

Period: 100.336 minutes

Inclination: 98.657 deg

SMA: 7152.607 km

Apoapsis: 847.048 km

Periapsis: 701.896 km

RAAN: 211.373 deg

Eccentricy: 0.0101468

Argument of periapsis: 340.7627 deg

Mean anomaly: 18.9738 deg

Mean motion: 14.351795 rev/day

Mean motion (dot): 0.00000768 rev/day2

B* drag term: 0.00026898 1/REarth

Two-line elements (TLE)

Creation date: July 7, 2025, 6:34 p.m.

Reference frame: TEME

Reference center: EARTH

Epoch: July 7, 2025, 2:03 p.m. UTC

TLE line 0: 0 CZ-6A DEB

TLE line 1: 1 54348U 22151CT 25188.58605952 .00000768 00000-0 26898-3 0 9996

TLE line 2: 2 54348 98.6570 211.3730 0101468 340.7627 18.9738 14.35179500138145

Live tracking on map

Real-time ground track for satellite CZ-6A DEB.

In-orbit conjunctions

A list of the most updated potential collisions computed for object CZ-6A DEB.

Target Orbit TCA Probability of collision Miss distance Type
FENGYUN 1C DEB SSO 2024-11-09 19:42:28 0.007081637 33.0 (m) DEBRIS
NOAA 16 DEB SSO 2024-09-27 00:07:46 0.0002645708 566.0 (m) DEBRIS

Associated space launch

Chinese satellite reported for atmospheric/ocean/environmental/spatial parameter research purposes, details TBD.

CZ-6A DEB was lifted into orbit during the mission ‘Long March 6A | Yunhai 3’, on board a Long March 6A space rocket.

The launch took place on Nov. 11, 2022, 10:52 p.m. from Launch Complex 9A.

For more information about the launch, click the button.

Launch to space Long March 6A | Yunhai 3
Long March 6A | Yunhai 3

Agency: N/A

Status: Launch Successful

Launch date: Nov. 11, 2022, 10:52 p.m. UTC

Rocket: Long March 6A

Launch pad: Launch Complex 9A

Location: Taiyuan Satellite Launch Center, People's Republic of China

...

Latest news about this satellite

There are no fresh news available about this satellite. Check back as we update our databases every day.


Newsletter sign-up

Weekly statistics, charts and insights to help you stay on top of the space industry.